Current weather by "City, St" or "zip code"  
 

Current Conditions: Nevada County Air Park, CA

A Few Clouds


59.0 F

Last Updated on May 21 2022, 1:55 am PDT
Humidity: 16%
Wind Speed: E 11.5 mph
Barometer 29.86 in
Dewpoint: 12.2 F
Visibility: 10.00 mi
Precip: --
Heat Index: NA
Wind Chill: 57 F
Current conditions at:

Nevada County Air Park, CA (KGOO)

Lat: 39.224028 Lon: 121.003083

Local Radar Image active severe weather and emergency alerts image image weather storm and storm spotter reports image weather observation monitoring service image
Local
Radar
Active
Alerts
Storm Reports Obs
Monitoring

Sign-up For Email & Text Message Weather Alert Notification Services



Advertise Here

Observation History for Nevada County Air Park, CA


Time Wind
(mph)
Vis
(mi)
Weather Precip (in) Temperature (F) Relative
Humidity
Wind
Chill
(F)
Heat
Index
(F)
Pressure
Air Dwpt altimeter
(in)
sea level
(mb)
Rmks
1:55 am PDT E 11.5 10.00 A Few Clouds -- 59.0 12.2 16% 57 NA 29.86 M
1:35 am PDT E 12.7 10.00 A Few Clouds -- 59.0 12.2 16% 57 NA 29.86 M
1:15 am PDT E 12.7 10.00 Fair -- 59.0 12.2 16% 57 NA 29.86 M
12:55 am PDT E 10.4 G 17.3 10.00 Fair -- 59.0 12.2 16% 57 NA 29.86 M
12:15 am PDT E 12.7 10.00 Fair -- 59.0 12.2 16% 57 NA 29.86 M
11:55 pm PDT E 12.7 10.00 Fair -- 59.0 12.2 16% 57 NA 29.86 M
11:35 pm PDT E 11.5 G 19.6 10.00 Fair -- 59.0 10.4 14% 57 NA 29.86 M
11:15 pm PDT E 12.7 10.00 Fair -- 59.0 12.2 16% 57 NA 29.86 M
10:55 pm PDT E 12.7 G 18.4 10.00 A Few Clouds -- 61.0 10.4 13% 59 NA 29.86 M
10:15 pm PDT E 13.8 10.00 Partly Cloudy -- 61.0 10.4 13% 59 NA 29.86 M
9:55 pm PDT E 11.5 G 17.3 10.00 Partly Cloudy -- 61.0 10.4 13% 59 NA 29.86 M
9:35 pm PDT E 10.4 G 18.4 10.00 A Few Clouds -- 61.0 10.4 13% 60 NA 29.86 M
9:15 pm PDT E 12.7 10.00 A Few Clouds -- 61.0 10.4 13% 59 NA 29.85 M
8:55 pm PDT E 8.1 G 15.0 10.00 Fair -- 61.0 10.4 13% 60 NA 29.84 M
8:30 pm PDT E 6.9 G 15.0 10.00 Fair -- 63.0 12.2 14% 63 NA 29.83 M
7:10 pm PDT 6.9 G 16.1 10.00 Fair -- 66.0 12.2 12% NA NA 29.82 M
6:50 pm PDT NE 10.4 G 17.3 10.00 Fair -- 68.0 10.4 10% NA NA 29.81 M
6:30 pm PDT NE 8.1 10.00 Fair -- 68.0 12.2 11% NA NA 29.80 M
6:10 pm PDT NE 10.4 G 16.1 10.00 Fair -- 70.0 12.2 11% NA NA 29.80 M
5:50 pm PDT N 0.0 G 11.5 10.00 Fair -- 70.0 10.4 10% NA NA 29.80 M
5:30 pm PDT N 0.0 10.00 Fair -- 70.0 5.0 8% NA NA 29.80 M
5:10 pm PDT N 0.0 10.00 Fair -- 72.0 8.6 8% NA NA 29.80 M
4:50 pm PDT N 0.0 10.00 Fair -- 72.0 10.4 9% NA NA 29.81 M
2:50 pm PDT E 10.4 10.00 Fair -- 72.0 12.2 10% NA NA 29.82 M

Regional Weather Observation


Marysville, Beale Air Force Base, CA (KBAB)

Fair with Haze
58.0 F

Oroville Municipal Airport, CA (KOVE)

Fair
62.0 F

Marysville, Yuba County Airport, CA (KMYV)

Fair
56.0 F

Emigrant Gap, Blue Canyon Nyack Airport, CA (KBLU)

Fair
48.0 F

Chico Municipal Airport, CA (KCIC)

Fair
59.0 F

Auburn Municipal Airport, CA (KAUN)

Fair
63.0 F

Advertise Here


Advertise Here